Date,TemperatureHighF,TemperatureAvgF,TemperatureLowF,DewpointHighF,DewpointAvgF,DewpointLowF,HumidityHigh,HumidityAvg,HumidityLow,PressureMaxIn,PressureMinIn,WindSpeedMaxMPH,WindSpeedAvgMPH,GustSpeedMaxMPH,PrecipitationSumIn
2013-1-1,31,17,11,19,13,8,91,84,57,30.72,30.58,6,2,8,0.01
2013-1-2,16,11,7,14,8,5,91,89,88,30.70,30.62,5,1,7,0.00
2013-1-3,30,16,2,19,10,-1,90,78,54,30.62,30.45,7,2,14,0.00
2013-1-4,40,26,16,28,18,11,82,71,53,30.54,30.37,8,3,17,0.01
2013-1-5,30,25,20,24,20,16,90,82,66,30.38,30.30,9,1,10,0.00
2013-1-6,41,32,22,30,26,20,89,77,61,30.31,30.16,11,3,22,0.00
2013-1-7,48,40,34,37,32,27,86,74,59,30.19,30.06,19,7,30,0.00
2013-1-8,49,43,39,38,35,31,84,75,65,30.19,30.02,18,8,24,0.00
2013-1-9,46,37,24,34,29,20,86,72,57,30.01,29.74,17,6,32,0.03
2013-1-10,33,25,21,24,19,17,90,77,58,30.12,29.92,9,3,17,0.03
2013-1-11,29,21,15,17,14,11,88,75,53,30.36,30.11,7,2,11,0.00
2013-1-12,28,16,10,13,8,5,83,73,43,30.50,30.36,14,3,16,0.00
2013-1-13,29,16,6,10,5,0,82,64,36,30.58,30.48,9,2,15,0.00
2013-1-14,42,26,14,24,13,5,76,60,39,30.59,30.48,19,6,22,0.00
2013-1-15,51,35,24,27,20,15,75,56,34,30.69,30.57,14,5,16,0.00
2013-1-16,55,38,29,26,20,17,65,50,22,30.66,30.52,14,5,20,0.00
2013-1-17,51,36,28,24,20,18,71,55,29,30.55,30.41,8,3,13,0.00
2013-1-18,52,36,27,25,20,16,70,55,34,30.45,30.38,12,3,14,0.00
2013-1-19,56,36,28,25,20,17,69,54,29,30.46,30.36,10,3,15,0.00
2013-1-20,50,34,25,20,18,15,70,54,27,30.49,30.38,9,3,15,0.00
2013-1-21,54,35,23,20,16,9,72,49,17,30.40,30.24,9,3,17,0.00
2013-1-22,48,32,23,24,18,13,81,59,31,30.27,30.12,9,2,14,0.00
2013-1-23,51,40,30,36,27,19,84,62,33,30.15,29.92,12,3,20,0.00
2013-1-24,51,42,30,38,34,29,95,76,53,30.20,30.12,16,4,21,0.02
2013-1-25,45,42,37,39,38,34,91,83,77,30.16,29.93,15,6,25,0.03
2013-1-26,40,33,25,34,25,20,94,73,49,30.08,29.93,8,2,16,0.01
2013-1-27,39,31,24,26,22,17,86,72,44,30.16,30.07,9,3,15,0.00
2013-1-28,40,35,31,27,25,23,82,69,53,30.17,30.07,9,3,21,0.00
2013-1-29,46,40,37,33,30,27,75,67,59,30.41,30.13,16,4,23,0.00
2013-1-30,49,41,36,35,32,27,81,70,57,30.45,30.40,11,4,18,0.00
2013-1-31,49,38,30,34,30,27,88,75,54,30.41,30.32,13,4,17,0.00
2013-2-1,51,36,28,34,28,24,88,74,39,30.46,30.35,8,2,17,0.00
2013-2-2,50,35,23,33,28,20,91,77,51,30.49,30.34,11,2,11,0.00
2013-2-3,56,43,32,31,26,23,83,55,28,30.34,30.16,13,3,16,0.00
2013-2-4,52,44,34,29,25,20,69,47,32,30.17,29.94,7,2,17,0.00
2013-2-5,47,41,33,31,24,18,76,52,37,30.06,29.89,20,6,25,0.00
2013-2-6,48,38,32,27,24,21,76,59,36,30.13,29.93,12,4,20,0.00
2013-2-7,39,33,27,28,24,20,88,70,49,30.12,29.91,8,2,14,0.00
2013-2-8,39,30,20,25,20,16,92,70,40,30.25,30.12,9,2,15,0.00
2013-2-9,43,31,19,28,22,14,87,71,55,30.32,30.21,10,2,13,0.00
2013-2-10,45,33,22,28,23,20,92,68,39,30.36,30.28,7,2,10,0.00
2013-2-11,49,37,27,32,25,21,81,65,39,30.38,30.27,13,4,15,0.00
2013-2-12,50,39,33,33,29,25,84,69,43,30.46,30.38,10,4,20,0.00
2013-2-13,47,39,32,34,30,28,86,73,55,30.48,30.41,11,3,15,0.00
2013-2-14,53,40,31,36,32,28,89,75,48,30.57,30.48,9,3,16,0.00
2013-2-15,58,42,30,37,33,27,90,73,43,30.53,30.27,10,2,14,0.00
2013-2-16,53,40,28,33,27,20,84,60,36,30.28,30.11,17,6,20,0.00
2013-2-17,44,32,25,24,20,12,84,64,29,30.24,30.12,7,2,9,0.00
2013-2-18,39,31,23,25,22,19,86,70,50,30.12,29.80,6,1,9,0.00
2013-2-19,41,31,23,24,22,18,83,69,46,30.00,29.73,9,2,13,0.00
2013-2-20,41,31,22,25,21,17,86,67,43,30.11,30.01,9,2,10,0.00
2013-2-21,39,32,25,26,24,20,88,71,49,30.22,30.10,12,3,15,0.00
2013-2-22,44,36,27,34,28,23,91,74,59,30.21,29.90,24,7,30,0.03
2013-2-23,37,29,21,24,21,17,89,73,50,30.45,30.05,14,3,21,0.02
2013-2-24,46,33,23,30,23,18,85,68,43,30.48,30.14,12,5,18,0.00
2013-2-25,42,34,24,32,22,8,89,63,32,30.36,30.08,14,5,24,0.02
2013-2-26,48,35,23,21,18,13,86,53,26,30.41,30.29,11,4,21,0.00
2013-2-27,46,40,32,32,24,16,67,53,39,30.34,30.28,13,5,18,0.00
2013-2-28,55,45,39,40,37,30,83,74,53,30.46,30.26,17,6,23,0.00
2013-3-1,61,48,39,37,35,31,84,62,38,30.48,30.30,12,4,17,0.00
2013-3-2,56,46,38,35,32,27,74,61,37,30.30,30.09,12,4,16,0.00
2013-3-3,43,35,26,32,19,6,85,57,22,30.25,30.08,8,3,13,0.00
2013-3-4,51,33,16,21,17,12,84,55,26,30.29,30.03,6,2,10,0.00
2013-3-5,43,33,26,31,25,19,91,72,53,30.02,29.73,6,2,9,0.00
2013-3-6,43,34,30,33,28,23,95,79,54,30.01,29.57,20,4,22,0.06
2013-3-7,44,34,26,29,24,20,89,68,39,30.09,30.00,6,3,11,0.00
2013-3-8,45,33,24,32,27,21,93,79,46,30.25,30.05,9,2,13,0.02
2013-3-9,54,37,23,24,20,14,85,56,22,30.52,30.26,8,2,12,0.00
2013-3-10,59,44,31,37,26,13,74,55,18,30.52,30.36,14,5,19,0.00
2013-3-11,56,46,39,40,37,34,86,72,52,30.39,30.23,10,3,15,0.00
2013-3-12,64,48,36,39,32,19,88,59,18,30.25,30.11,11,3,15,0.00
2013-3-13,67,53,42,37,32,25,67,47,31,30.19,30.09,9,2,14,0.00
2013-3-14,67,52,42,35,28,17,65,45,17,30.16,30.02,14,5,21,0.00
2013-3-15,59,46,36,37,33,29,84,63,37,30.19,30.11,10,2,12,0.00
2013-3-16,51,41,30,33,30,24,90,65,42,30.15,29.94,13,5,28,0.00
2013-3-17,43,32,24,28,21,17,89,66,40,30.24,30.03,15,3,21,0.01
2013-3-18,51,35,20,26,17,-9,89,57,8,30.30,30.19,6,2,10,0.00
2013-3-19,52,39,30,41,28,20,91,67,36,30.22,29.80,6,2,12,0.12
2013-3-20,47,42,28,41,34,23,87,75,46,30.08,29.62,18,6,29,0.14
2013-3-21,42,32,24,25,20,14,83,63,33,30.28,30.10,12,4,17,0.00
2013-3-22,38,30,25,22,18,14,86,64,40,30.40,30.27,14,4,22,0.00
2013-3-23,44,32,23,20,18,17,81,58,35,30.41,30.29,7,2,11,0.00
2013-3-24,47,35,23,26,22,18,83,61,41,30.33,30.18,10,2,11,0.00
2013-3-25,50,40,30,30,27,24,79,60,44,30.18,29.96,7,2,11,0.00
2013-3-26,49,42,36,38,35,30,88,78,61,30.02,29.96,6,2,10,0.02
2013-3-27,56,43,34,42,36,31,94,80,47,30.03,29.92,11,3,18,0.08
2013-3-28,57,46,40,43,41,38,95,82,52,30.14,30.01,10,2,15,0.21
2013-3-29,60,49,39,44,40,37,94,75,50,30.23,30.14,14,2,14,0.01
2013-3-30,69,52,37,44,40,34,91,66,36,30.23,30.05,10,3,13,0.00
2013-3-31,65,52,36,44,38,33,90,63,37,30.05,29.87,9,3,14,0.00
2013-4-1,62,50,38,43,40,36,91,70,47,30.10,29.92,11,3,16,0.00
2013-4-2,63,49,39,41,38,35,86,68,42,30.16,30.07,8,3,14,0.00
2013-4-3,67,52,37,39,33,21,88,55,18,30.15,29.94,11,4,15,0.00
2013-4-4,62,52,45,41,38,35,79,60,42,29.92,29.67,19,4,29,0.00
2013-4-5,54,46,42,41,37,32,84,72,46,29.97,29.85,15,6,19,0.05
2013-4-6,53,46,39,38,35,29,87,67,42,29.97,29.83,13,6,21,0.01
2013-4-7,47,41,33,37,29,23,83,64,44,29.87,29.66,28,7,30,0.04
2013-4-8,47,37,26,28,25,22,83,64,47,30.29,29.88,13,4,17,0.00
2013-4-9,58,44,27,36,28,13,84,57,17,30.39,30.28,9,3,12,0.00
2013-4-10,60,50,36,44,37,29,80,62,39,30.28,30.06,15,7,24,0.00
2013-4-11,55,40,25,31,26,23,91,62,34,30.26,30.15,12,3,14,0.00
2013-4-12,62,44,28,36,27,9,84,58,13,30.17,29.75,18,5,26,0.00
2013-4-13,47,40,32,34,24,17,72,55,33,30.05,29.73,14,6,25,0.00
2013-4-14,43,34,27,28,23,19,90,65,42,30.07,29.91,9,3,17,0.00
2013-4-15,41,32,28,33,28,26,94,87,59,30.18,29.93,12,3,18,0.10
2013-4-16,43,34,28,31,28,23,93,81,46,30.43,30.18,12,4,16,0.12
2013-4-17,50,37,22,28,22,14,90,60,27,30.53,30.43,11,2,14,0.00
2013-4-18,61,46,34,39,33,26,78,62,42,30.46,30.30,8,4,16,0.00
2013-4-19,58,49,41,40,37,32,76,65,40,30.30,30.10,21,6,30,0.00
2013-4-20,58,46,34,34,32,26,88,62,30,30.27,30.18,11,4,20,0.00
2013-4-21,60,48,38,39,35,26,80,63,39,30.22,30.12,16,5,21,0.00
2013-4-22,54,43,35,35,26,18,85,54,27,30.42,30.22,11,4,17,0.00
2013-4-23,62,44,25,20,13,-3,70,35,7,30.42,30.14,12,3,18,0.00
2013-4-24,68,49,28,23,18,13,65,33,12,30.32,30.04,8,2,11,0.00
2013-4-25,72,56,40,35,28,21,55,37,22,30.10,29.98,13,4,17,0.00
2013-4-26,77,60,44,37,32,20,68,41,12,30.19,30.10,15,5,18,0.00
2013-4-27,71,54,46,35,30,-100,60,46,19,30.20,30.12,11,-14,19,0.00
2013-4-29,57,48,36,35,27,24,65,45,35,30.04,29.96,18,7,26,0.00
2013-4-30,50,38,25,24,21,18,81,54,28,30.45,30.05,16,4,19,0.00
2013-5-1,63,45,26,24,19,12,78,43,14,30.57,30.44,11,2,13,0.00
2013-5-2,75,56,34,26,17,-2,67,29,5,30.55,30.22,11,3,14,0.00
2013-5-3,70,57,40,32,29,24,61,36,22,30.25,30.12,11,4,18,0.00
2013-5-4,68,56,38,35,31,29,71,41,27,30.14,29.89,16,5,28,0.00
2013-5-5,72,59,45,36,33,30,56,39,26,29.91,29.72,14,5,21,0.00
2013-5-6,78,64,44,45,35,30,69,38,21,29.81,29.67,10,4,18,0.01
2013-5-7,77,64,50,46,43,33,81,52,20,29.87,29.74,18,5,24,0.00
2013-5-8,80,63,48,47,43,33,79,52,19,30.01,29.88,11,4,19,0.00
2013-5-9,82,64,50,53,46,40,82,57,23,30.07,29.96,16,4,24,0.09
2013-5-10,84,67,51,50,45,38,80,50,20,30.12,30.02,11,5,17,0.01
2013-5-11,86,71,57,54,48,36,74,49,17,30.11,29.92,15,4,16,0.00
2013-5-12,82,68,57,54,49,42,84,53,25,29.97,29.85,12,3,20,0.00
2013-5-13,70,58,44,48,42,34,85,58,36,30.09,29.90,19,5,29,0.00
2013-5-14,67,52,37,40,36,33,87,60,31,30.13,30.01,10,3,14,0.00
2013-5-15,63,50,41,47,39,35,84,68,37,30.06,29.94,9,2,14,0.05
2013-5-16,58,48,41,46,41,38,91,76,48,29.99,29.88,9,2,17,0.08
2013-5-17,57,48,40,42,39,35,93,72,47,30.06,29.92,9,2,20,0.02
2013-5-18,60,47,36,45,36,32,87,69,45,30.25,30.06,12,3,26,0.02
2013-5-19,64,50,39,42,36,34,82,61,35,30.34,30.25,13,4,18,0.00
2013-5-20,76,57,37,43,36,24,83,52,15,30.29,29.83,8,2,12,0.00
2013-5-21,56,48,34,42,32,23,80,55,29,29.89,29.66,18,6,28,0.01
2013-5-22,47,39,32,31,27,22,77,64,50,30.00,29.89,18,6,22,0.00
2013-5-23,56,45,33,33,29,25,79,57,32,30.02,29.96,9,4,14,0.00
2013-5-24,58,47,39,35,32,27,80,58,35,30.03,29.96,11,5,21,0.00
2013-5-25,65,49,35,44,35,30,88,62,31,30.04,29.92,9,3,15,0.01
2013-5-26,60,51,45,44,41,37,93,71,44,30.00,29.91,8,3,17,0.09
2013-5-27,58,50,44,48,41,37,82,72,60,29.97,29.75,11,4,19,0.08
2013-5-28,64,52,42,42,34,-100,85,57,32,29.88,29.72,10,-18,15,0.01
2013-5-29,59,51,44,45,39,35,90,64,44,29.97,29.64,16,6,25,0.08
2013-5-30,62,48,34,37,34,31,88,62,36,30.20,29.97,12,3,16,0.00
2013-5-31,70,53,34,38,33,24,87,53,22,30.29,30.17,10,3,13,0.00
2013-6-1,76,60,42,46,39,35,77,50,25,30.20,29.93,11,3,21,0.00
2013-6-2,71,58,45,45,40,32,85,57,23,29.98,29.86,11,3,18,0.00
2013-6-3,76,59,41,40,35,28,80,46,20,30.03,29.92,10,3,12,0.00
2013-6-4,79,63,44,40,34,29,66,37,19,30.05,29.94,8,2,16,0.00
2013-6-5,86,68,51,49,42,38,64,42,20,30.00,29.85,10,3,16,0.00
2013-6-6,86,70,54,54,48,44,71,49,23,29.91,29.80,12,3,17,0.00
2013-6-7,82,68,56,51,48,42,80,54,30,29.97,29.87,14,3,20,0.00
2013-6-8,86,69,52,49,41,15,81,44,9,29.99,29.89,13,4,19,0.00
2013-6-9,83,67,52,47,40,30,72,43,15,29.92,29.75,16,3,17,0.00
2013-6-10,78,60,43,39,34,23,73,43,16,29.82,29.68,11,3,16,0.00
2013-6-11,62,51,41,40,36,33,84,59,36,30.07,29.81,10,3,21,0.00
2013-6-12,62,49,36,37,34,31,84,60,37,30.11,30.05,13,3,18,0.00
2013-6-13,58,47,39,41,36,33,85,66,41,30.26,30.11,16,4,21,0.05
2013-6-14,71,55,36,39,33,26,91,51,19,30.26,29.97,8,3,14,0.00
2013-6-15,81,63,43,49,38,30,71,45,16,29.97,29.79,14,2,21,0.00
2013-6-16,79,63,51,55,46,41,76,56,28,30.00,29.86,11,3,17,0.04
2013-6-17,76,62,48,50,45,40,83,58,29,30.01,29.80,10,4,16,0.02
2013-6-18,61,53,46,48,43,36,85,69,45,29.90,29.81,12,3,21,0.07
2013-6-19,58,49,41,43,39,36,91,71,47,30.06,29.87,9,2,17,0.24
2013-6-20,62,49,34,40,36,31,93,63,37,30.11,30.03,13,3,18,0.00
2013-6-21,61,51,42,42,40,37,84,66,47,30.13,30.10,10,3,14,0.01
2013-6-22,76,60,42,47,41,37,85,55,28,30.11,29.83,9,3,12,0.00
2013-6-23,64,58,55,55,51,43,94,79,57,29.83,29.60,6,2,9,0.23
2013-6-24,60,54,47,53,49,45,95,84,67,29.70,29.59,7,2,11,0.17
2013-6-25,64,57,51,50,48,45,90,71,52,29.79,29.69,14,4,20,0.02
2013-6-26,66,62,53,59,54,50,90,77,66,30.03,29.91,8,2,11,0.04
2013-6-27,84,66,48,56,52,47,95,65,35,30.11,30.03,9,3,16,0.00
2013-6-28,91,74,56,60,56,52,87,58,29,30.11,29.90,11,3,16,0.00
2013-6-29,86,75,61,59,56,54,82,55,36,29.96,29.85,11,3,19,0.00
2013-6-30,94,77,58,59,55,52,80,50,27,29.93,29.74,16,3,17,0.00
2013-7-1,97,82,69,62,58,55,63,45,26,29.86,29.75,12,4,16,0.00
2013-7-2,98,82,68,62,58,50,77,48,20,29.89,29.77,13,3,19,0.00
2013-7-3,91,77,62,61,55,44,82,49,30,29.91,29.81,16,3,20,0.00
2013-7-4,82,68,54,48,42,28,74,43,16,29.91,29.79,13,4,19,0.00
2013-7-5,78,64,49,46,38,30,83,44,22,29.87,29.77,11,3,15,0.00
2013-7-6,82,62,45,47,37,32,71,43,17,29.85,29.72,8,2,12,0.00
2013-7-7,86,69,52,51,45,41,71,46,22,29.82,29.69,13,3,18,0.00
2013-7-8,86,67,54,51,43,33,80,48,17,29.96,29.82,9,3,12,0.00
2013-7-9,92,75,56,53,46,41,64,40,17,29.99,29.82,15,3,21,0.00
2013-7-10,88,75,63,54,48,41,65,42,20,29.91,29.70,11,3,18,0.00
2013-7-11,81,66,52,49,44,41,76,49,24,29.84,29.74,10,2,16,0.00
2013-7-12,77,62,49,43,38,26,79,44,16,29.98,29.81,12,3,19,0.00
2013-7-13,78,62,45,41,35,27,72,41,18,30.07,29.95,9,3,15,0.00
2013-7-14,89,70,50,47,36,26,50,30,17,30.05,29.84,12,2,18,0.00
2013-7-15,86,71,55,46,41,35,65,37,18,29.89,29.70,12,3,17,0.00
2013-7-16,82,71,62,50,39,33,43,33,23,29.87,29.71,11,4,17,0.00
2013-7-17,88,73,60,47,41,33,61,35,14,30.01,29.87,13,5,17,0.00
2013-7-18,91,74,56,49,41,34,58,36,14,30.05,29.87,10,3,16,0.00
2013-7-19,91,75,56,51,37,25,68,32,10,29.98,29.82,10,3,13,0.00
2013-7-20,93,75,60,50,38,16,66,33,7,29.89,29.74,11,3,19,0.00
2013-7-21,94,74,58,48,38,13,68,35,5,29.81,29.71,12,4,18,0.00
2013-7-22,94,75,58,45,38,23,60,31,9,29.88,29.78,10,4,15,0.00
2013-7-23,95,77,61,49,42,32,62,34,11,29.89,29.78,12,4,18,0.00
2013-7-24,92,76,62,50,40,21,57,32,9,29.90,29.83,10,2,12,0.00
2013-7-25,95,78,59,48,39,20,59,31,8,29.94,29.85,12,4,16,0.00
2013-7-26,94,78,61,44,37,30,47,24,11,29.97,29.85,12,3,17,0.00
2013-7-27,85,70,56,43,37,24,60,34,11,29.96,29.81,13,3,18,0.00
2013-7-28,81,66,53,44,37,23,65,38,16,29.87,29.78,10,3,15,0.00
2013-7-29,82,67,52,48,41,34,70,44,19,29.90,29.78,9,3,13,0.00
2013-7-30,85,69,53,47,39,26,74,41,12,30.01,29.91,10,3,17,0.00
2013-7-31,83,68,59,51,44,34,69,45,19,29.99,29.84,7,2,16,0.01
2013-8-1,72,59,52,55,48,43,89,69,39,30.00,29.86,10,2,13,0.15
2013-8-2,77,60,47,48,43,38,83,57,25,30.07,29.96,9,3,15,0.00
2013-8-3,82,65,49,48,42,33,79,49,18,30.05,29.91,8,3,14,0.00
2013-8-4,87,71,54,50,45,41,72,44,21,29.96,29.79,9,3,16,0.00
2013-8-5,87,72,59,50,47,37,64,44,18,29.89,29.78,9,3,16,0.00
2013-8-6,90,73,56,51,45,38,68,41,17,29.90,29.78,9,3,20,0.00
2013-8-7,83,70,58,46,43,36,58,40,20,29.91,29.82,12,2,20,0.00
2013-8-8,83,70,56,49,45,39,68,42,23,29.89,29.79,8,2,11,0.00
2013-8-9,83,67,55,58,49,45,83,55,27,29.87,29.72,13,2,23,0.20
2013-8-10,76,62,52,52,49,47,84,64,38,29.94,29.85,11,4,17,0.00
2013-8-27,75,66,59,53,52,51,75,62,45,29.75,29.71,9,2,12,0.00
2013-8-28,84,69,55,54,48,40,82,54,22,29.81,29.72,11,4,19,0.00
2013-8-29,80,68,59,54,50,44,77,55,29,29.98,29.79,13,4,22,0.00
2013-8-30,82,67,54,55,51,45,87,60,27,30.05,29.91,11,3,17,0.00
2013-8-31,88,69,52,55,51,47,85,56,26,29.97,29.75,11,2,15,0.00
2013-9-1,90,73,58,54,44,26,73,44,10,29.79,29.61,17,4,21,0.00
2013-9-2,85,68,55,54,50,36,80,58,18,29.82,29.67,9,3,17,0.00
2013-9-3,83,65,54,52,48,34,85,60,18,29.91,29.80,12,4,17,0.00
2013-9-4,83,64,53,51,47,34,82,59,20,29.93,29.83,12,3,16,0.00
2013-9-5,72,59,50,51,48,43,83,69,46,30.00,29.80,19,3,24,0.08
2013-9-6,69,59,50,50,47,44,85,66,47,30.09,30.00,12,6,20,0.02